FW5309 Weather Reports


time (UTC)temp
C
wind
direction
speed
KPH
gust
KPH
rain 1hr
cm
rain 24hr
cm
rain mn
cm
humidity
%
barometer
mb
20260508073019 10 105 0.0 0.0 0.00 0.05 0.00 51 1014.7
20260508071542 10 105 0.0 4.8 0.00 0.08 0.00 53 1015.0
20260508070032 8 112 0.0 8.0 0.00 0.08 0.00 60 1015.0
20260508064603 7 107 0.0 0.0 0.00 0.08 0.00 71 1015.0
20260508063044 7 107 0.0 0.0 0.00 0.08 0.00 73 1015.1
20260508061514 7 107 0.0 0.0 0.00 0.08 0.00 75 1015.0
20260508060016 7 107 0.0 0.0 0.00 0.08 0.00 75 1014.9
20260508054534 7 107 0.0 0.0 0.00 0.08 0.00 75 1014.8
20260508053024 8 107 0.0 0.0 0.00 0.08 0.00 75 1014.4
20260508051556 8 107 0.0 0.0 0.00 0.08 0.00 76 1014.3
20260508050050 8 107 0.0 0.0 0.00 0.08 0.00 76 1014.1
20260508044600 8 107 0.0 0.0 0.00 0.08 0.00 76 1013.9
20260508043056 8 107 0.0 0.0 0.00 0.08 0.00 75 1013.7
20260508041510 8 107 0.0 0.0 0.00 0.08 0.08 75 1013.7
20260508040107 9 107 0.0 0.0 0.00 0.08 0.08 74 1013.4
20260508034523 9 107 0.0 0.0 0.00 0.08 0.08 73 1013.4
20260508033017 10 107 0.0 0.0 0.00 0.08 0.08 71 1013.3
20260508031525 10 107 0.0 0.0 0.00 0.18 0.08 71 1013.1
20260508030030 10 107 0.0 0.0 0.00 0.18 0.08 70 1013.0
20260508024555 10 107 0.0 0.0 0.00 0.18 0.08 68 1012.9
20260508023050 11 107 0.0 0.0 0.00 0.18 0.08 67 1012.6
20260508021506 11 107 0.0 0.0 0.00 0.18 0.08 65 1012.4
20260508020012 11 107 0.0 0.0 0.00 0.18 0.08 64 1012.0
20260508014523 12 107 0.0 0.0 0.00 0.18 0.08 62 1011.9
20260508013019 12 107 0.0 0.0 0.00 0.18 0.08 60 1011.5
20260508011532 13 107 0.0 0.0 0.00 0.18 0.08 57 1011.3
20260508010042 14 107 0.0 0.0 0.00 0.18 0.08 51 1011.1
20260508004511 15 112 0.0 0.0 0.00 0.18 0.08 50 1011.2
20260508003015 15 112 0.0 0.0 0.00 0.18 0.08 46 1010.9
20260508001539 15 110 0.0 0.0 0.00 0.18 0.08 45 1010.8
20260508000032 16 109 0.0 9.7 0.00 0.18 0.08 44 1010.7
20260507234508 16 124 0.0 8.0 0.00 0.18 0.08 44 1010.5
20260507233055 16 117 0.0 16.1 0.00 0.18 0.08 43 1010.2
20260507233001 16 134 0.0 16.1 0.00 0.18 0.08 43 1010.2
20260507231515 17 137 0.0 8.0 0.00 0.18 0.08 43 1010.1
20260507230013 18 132 4.8 17.7 0.00 0.18 0.08 41 1009.9
20260507224545 18 162 0.0 14.5 0.00 0.18 0.08 43 1009.6
20260507223033 18 131 0.0 12.9 0.00 0.18 0.08 45 1009.6
20260507221503 18 151 1.6 11.3 0.00 0.18 0.08 47 1009.2
20260507220006 17 125 0.0 12.9 0.00 0.18 0.08 52 1009.0
20260507214530 17 85 0.0 1.6 0.00 0.18 0.08 62 1008.9
20260507213036 17 69 0.0 0.0 0.00 0.18 0.08 61 1009.1
20260507211557 16 69 0.0 0.0 0.00 0.18 0.08 63 1009.0
20260507210046 17 68 1.6 9.7 0.00 0.18 0.08 61 1008.9
20260507204502 17 43 0.0 9.7 0.00 0.18 0.08 60 1008.9
20260507203006 17 33 0.0 14.5 0.00 0.18 0.08 60 1008.8
20260507201522 17 76 0.0 4.8 0.00 0.18 0.08 58 1009.1
20260507200014 16 56 0.0 1.6 0.00 0.18 0.08 64 1009.4
20260507194529 16 207 0.0 1.6 0.03 0.18 0.08 62 1009.9
20260507193031 16 207 0.0 0.0 0.03 0.18 0.08 68 1010.0
20260507191551 15 207 0.0 0.0 0.03 0.18 0.08 67 1010.0
20260507190049 15 208 0.0 0.0 0.03 0.18 0.08 74 1010.4
20260507184508 15 208 0.0 0.0 0.00 0.15 0.05 71 1010.4
20260507183010 15 208 0.0 0.0 0.00 0.15 0.05 72 1010.4
20260507181537 15 208 0.0 0.0 0.00 0.15 0.05 75 1010.4
20260507180032 15 208 0.0 0.0 0.03 0.15 0.05 76 1010.4
20260507174614 15 208 0.0 0.0 0.03 0.15 0.05 77 1010.4
20260507173051 14 208 0.0 0.0 0.03 0.15 0.05 74 1010.4
20260507171505 15 208 0.0 0.0 0.03 0.15 0.05 71 1010.7
20260507170058 15 209 0.0 0.0 0.00 0.13 0.03 68 1010.5
20260507170003 15 209 0.0 0.0 0.00 0.13 0.03 69 1010.5
20260507164510 15 198 0.0 6.4 0.00 0.13 0.03 68 1010.4
20260507163006 15 201 0.0 0.0 0.00 0.13 0.03 68 1010.4
20260507161521 15 201 0.0 1.6 0.00 0.13 0.03 67 1010.4
20260507160024 15 201 0.0 6.4 0.00 0.13 0.03 68 1010.7
20260507154542 15 197 0.0 1.6 0.00 0.13 0.03 68 1010.9
20260507153032 15 196 0.0 4.8 0.00 0.13 0.03 69 1010.7
20260507151600 16 195 0.0 6.4 0.00 0.13 0.03 69 1010.7
20260507150005 16 186 0.0 0.0 0.00 0.13 0.03 69 1010.4
20260507144528 16 172 0.0 1.6 0.00 0.13 0.03 69 1010.4
20260507143030 16 171 0.0 4.8 0.00 0.13 0.03 69 1010.3
20260507141614 16 170 0.0 4.8 0.00 0.15 0.03 70 1010.4
20260507140112 16 171 0.0 4.8 0.00 0.15 0.03 71 1010.2
20260507134513 16 170 0.0 0.0 0.00 0.15 0.03 73 1010.8
20260507133018 16 170 0.0 4.8 0.00 0.15 0.03 72 1010.6
20260507131612 16 172 0.0 4.8 0.00 0.15 0.03 74 1010.9
20260507130032 16 126 0.0 0.0 0.00 0.15 0.03 75 1010.4
20260507124554 16 126 0.0 0.0 0.00 0.15 0.03 75 1010.6
20260507123105 16 126 0.0 0.0 0.00 0.15 0.03 77 1010.7
20260507121516 15 126 0.0 1.6 0.00 0.15 0.03 78 1010.4
20260507120022 15 122 0.0 0.0 0.00 0.15 0.03 78 1010.4
20260507114538 15 122 0.0 1.6 0.00 0.15 0.03 79 1010.4
20260507113101 15 121 0.0 0.0 0.00 0.15 0.03 80 1010.0
20260507111548 15 121 0.0 0.0 0.00 0.15 0.03 81 1009.8
20260507110043 15 121 0.0 1.6 0.00 0.15 0.03 81 1009.8
20260507104602 15 121 0.0 1.6 0.00 0.15 0.03 81 1009.8
20260507103054 15 121 0.0 0.0 0.00 0.15 0.03 82 1009.7
20260507101523 15 119 0.0 0.0 0.00 0.15 0.03 81 1009.8
20260507100030 15 155 0.0 0.0 0.00 0.15 0.03 82 1009.6
20260507094528 16 155 0.0 4.8 0.00 0.15 0.03 82 1009.3
20260507093028 16 155 0.0 0.0 0.00 0.15 0.03 84 1009.8
20260507091552 16 155 0.0 0.0 0.00 0.15 0.03 84 1009.2
20260507090054 16 155 0.0 0.0 0.00 0.15 0.03 85 1009.2
20260507084539 16 155 0.0 0.0 0.00 0.15 0.03 85 1009.4
20260507083023 16 155 0.0 0.0 0.00 0.15 0.03 85 1009.2
20260507081538 16 155 0.0 0.0 0.00 0.15 0.03 85 1009.3
20260507080036 17 155 0.0 0.0 0.00 0.15 0.03 85 1009.6
20260507074554 17 155 0.0 0.0 0.00 0.15 0.03 85 1009.7